Observations for Trim Patrick St
| Time | AQI | Temp °C | Hum % | Pres Pa | CO μg/m³ | H₂S μg/m³ | NO μg/m³ | NO₂ μg/m³ | O₃ μg/m³ | SO₂ μg/m³ | PM1 μg/m³ | PM2.5 μg/m³ | PM10 μg/m³ |
|---|---|---|---|---|---|---|---|---|---|---|---|---|---|
| Thursday 6 August 2026 | |||||||||||||
| 03:43 | 2 | 13.1 | 75 | 38,460 | 0.27 | 0 | 3.57 | 9.31 | 31.72 | 0 | 3.71 | 7.71 | 8.48 |
| 03:42 | 2 | 13.1 | 75 | 38,460 | 0.29 | 0 | 3.59 | 9.84 | 36.01 | 0 | 4.57 | 8.4 | 9.24 |
| 03:41 | 2 | 13.2 | 75 | 38,460 | 0.29 | 0.12 | 3.63 | 11.75 | 50.38 | 0 | 4.57 | 8.4 | 9.24 |
| 03:40 | 2 | 13.2 | 75 | 38,460 | 0.31 | 0 | 3.56 | 9.8 | 32.91 | 0 | 5.43 | 9.81 | 10.79 |
| 03:39 | 2 | 13.2 | 74 | 38,460 | 0.31 | 0 | 3.57 | 10.82 | 33.41 | 0 | 3.71 | 8.45 | 9.29 |
| 03:38 | 2 | 13.2 | 75 | 38,460 | 0.3 | 0 | 3.51 | 8.79 | 35.93 | 0 | 3.71 | 8.41 | 9.25 |
| 03:36 | 2 | 13.2 | 75 | 38,460 | 0.3 | 0 | 3.46 | 9.47 | 35.38 | 0 | 5.43 | 9.11 | 10.02 |
| 03:34 | 2 | 13.2 | 74 | 38,460 | 0.32 | 0 | 3.56 | 10.38 | 36.68 | 0 | 7.14 | 11.98 | 13.18 |
| 03:33 | 2 | 13.2 | 75 | 38,460 | 0.32 | 0 | 3.55 | 10.26 | 35.92 | 0 | 6.29 | 10.55 | 11.6 |
| 03:32 | 2 | 13.2 | 75 | 38,460 | 0.32 | 0 | 3.54 | 9.77 | 27.89 | 0 | 6.29 | 11.95 | 13.15 |
| 03:31 | 2 | 13.2 | 74 | 38,460 | 0.33 | 0 | 3.53 | 7.37 | 35.38 | 0 | 6.29 | 12.7 | 13.98 |
| 03:29 | 2 | 13.3 | 75 | 38,460 | 0.31 | 0 | 3.49 | 9.29 | 34.19 | 0 | 5.43 | 9.1 | 10.01 |
| 03:27 | 2 | 13.2 | 75 | 38,460 | 0.33 | 0.38 | 3.56 | 12.13 | 47.18 | 0 | 8 | 12.64 | 13.91 |
| 03:26 | 2 | 13.3 | 74 | 38,460 | 0.33 | 0 | 3.58 | 10.32 | 33.15 | 0 | 7.14 | 11.98 | 13.18 |
| 03:25 | 2 | 13.3 | 74 | 38,460 | 0.33 | 0 | 3.58 | 10.36 | 36.7 | 0 | 8 | 12.75 | 14.02 |
| 03:23 | 2 | 13.3 | 75 | 38,460 | 0.34 | 0.23 | 3.54 | 10.87 | 34.59 | 0 | 8 | 13.38 | 14.72 |
| 03:22 | 2 | 13.3 | 75 | 38,460 | 0.35 | 0 | 3.55 | 12.01 | 32.6 | 0 | 8.86 | 14.11 | 15.52 |
| 03:21 | 2 | 13.3 | 75 | 38,460 | 0.35 | 0.1 | 3.48 | 8.7 | 34.66 | 0 | 9.71 | 16.95 | 18.64 |
| 03:20 | 2 | 13.3 | 74 | 38,460 | 0.34 | 0.64 | 3.5 | 11.85 | 34.78 | 0 | 9.71 | 14.85 | 16.33 |
| 03:19 | 2 | 13.3 | 75 | 38,460 | 0.35 | 0.8 | 3.41 | 10.36 | 30.35 | 0 | 8.86 | 16.23 | 17.86 |